OPTUS D2

Last updated on Thu Jul 03 2025 00:02:44 GMT+0000 (Coordinated Universal Time)

1 32252U 07044A 25183.46086334 -.00000095 00000+0 00000+0 0 9995 2 32252 1.1687 86.5682 0002670 15.0156 145.9052 1.00276648 65064
UTC large
Height (km)
Speed (km/s)
/
Latitude / Longitude
Inclination (degrees)
Orbital Period (minutes)
Azimuth
Elevation
Range (km)
Doppler Factor

Next 0 passes for location: London (51.5072 / 0.1276)

Sorry there are no passes over London.